CW1708 Weather Reports


Display with metric or nautical units.
time (UTC)temp
F
wind
direction
speed
MPH
gust
MPH
rain 1hr
in
rain 24hr
in
rain mn
in
humidity
%
barometer
mb
20210411014623 60 255 0.0 2.0 0.00 0.00 0.00 85 984.8
20210411014127 60 255 0.0 1.0 0.00 0.00 0.00 85 984.8
20210411013626 60 255 0.0 0.0 0.00 0.00 0.00 85 984.9
20210411013145 60 255 0.0 0.0 0.00 0.00 0.00 86 985.1
20210411012918 60 255 0.0 0.0 0.00 0.00 0.00 86 985.2
20210411012523 59 255 0.0 0.0 0.00 0.00 0.00 86 985.4
20210411011623 60 255 0.0 0.0 0.00 0.00 0.00 85 985.4
20210411011108 60 255 0.0 0.0 0.00 0.00 0.00 84 985.5
20210411010621 60 255 0.0 0.0 0.00 0.00 0.00 84 985.5
20210411005925 60 255 0.0 0.0 0.00 0.00 0.00 84 985.5
20210411004623 60 255 0.0 0.0 0.00 0.00 0.00 84 985.5
20210411004116 60 255 0.0 0.0 0.00 0.00 0.00 84 985.8
20210411003627 60 255 0.0 0.0 0.00 0.00 0.00 84 985.8
20210411003117 61 255 0.0 0.0 0.00 0.00 0.00 84 985.8
20210411002614 61 255 0.0 0.0 0.00 0.00 0.00 83 985.9
20210411002101 61 255 0.0 0.0 0.00 0.00 0.00 83 986.1
20210411001601 61 255 0.0 0.0 0.00 0.00 0.00 83 986.1
20210411001052 61 255 0.0 0.0 0.00 0.00 0.00 82 986.1
20210411000619 61 255 0.0 0.0 0.00 0.00 0.00 81 986.2
20210411000055 62 255 0.0 0.0 0.00 0.00 0.00 81 986.3
20210410235555 62 255 0.0 0.0 0.00 0.00 0.00 80 986.3
20210410235057 62 255 0.0 0.0 0.00 0.00 0.00 80 986.4
20210410234551 63 255 0.0 0.0 0.00 0.00 0.00 79 986.4
20210410234120 63 255 0.0 0.0 0.00 0.00 0.00 79 986.5
20210410233542 64 255 0.0 0.0 0.00 0.00 0.00 78 986.4
20210410233104 64 255 0.0 0.0 0.00 0.00 0.00 77 986.6
20210410232549 65 255 0.0 0.0 0.00 0.00 0.00 76 986.7
20210410232051 65 255 0.0 1.0 0.00 0.00 0.00 75 986.7
20210410231536 65 255 0.0 1.0 0.00 0.00 0.00 74 986.8
20210410231052 66 255 0.0 0.0 0.00 0.00 0.00 73 986.8
20210410230552 66 255 0.0 3.0 0.00 0.00 0.00 73 986.8
20210410230042 67 255 0.0 3.0 0.00 0.00 0.00 72 986.9
20210410225533 67 250 0.0 2.0 0.00 0.00 0.00 71 987.0
20210410225041 67 250 0.0 1.0 0.00 0.00 0.00 71 987.1
20210410224614 67 250 0.0 1.0 0.00 0.00 0.00 71 987.0
20210410224039 67 250 0.0 4.0 0.00 0.00 0.00 71 987.1
20210410223540 68 250 1.0 4.0 0.00 0.00 0.00 70 987.1
20210410223051 68 249 0.0 4.0 0.00 0.00 0.00 70 987.2
20210410222847 68 256 0.0 1.0 0.00 0.00 0.00 70 987.2
20210410222331 68 261 0.0 3.0 0.00 0.00 0.00 70 987.2
20210410221547 68 269 0.0 3.0 0.00 0.00 0.00 69 987.3
20210410221042 68 306 0.0 4.0 0.00 0.00 0.00 69 987.3
20210410220524 69 306 1.0 5.0 0.00 0.00 0.00 69 987.4
20210410220033 69 246 1.0 5.0 0.00 0.00 0.00 68 987.5
20210410215916 69 271 1.0 4.0 0.00 0.00 0.00 68 987.5
20210410215420 69 252 1.0 4.0 0.00 0.00 0.00 68 987.5
20210410214529 69 251 1.0 4.0 0.00 0.00 0.00 68 987.5
20210410214026 69 300 1.0 4.0 0.00 0.00 0.00 68 987.6
20210410213540 69 319 2.0 6.0 0.00 0.00 0.00 68 987.7
20210410213034 69 264 1.0 6.0 0.00 0.00 0.00 67 987.7
20210410212903 70 278 0.0 3.0 0.00 0.00 0.00 69 987.8
20210410212234 70 286 1.0 7.0 0.00 0.00 0.00 67 987.9
20210410211524 70 319 1.0 7.0 0.00 0.00 0.00 67 987.9
20210410211028 69 266 0.0 4.0 0.00 0.00 0.00 68 987.9
20210410210525 70 260 1.0 6.0 0.00 0.00 0.00 67 987.9
20210410210053 71 285 2.0 5.0 0.00 0.00 0.00 67 988.1
20210410205626 70 338 1.0 6.0 0.00 0.00 0.00 66 988.1
20210410204542 70 257 2.0 6.0 0.00 0.00 0.00 66 988.1
20210410204029 71 259 2.0 8.0 0.00 0.00 0.00 67 988.2
20210410203522 71 257 2.0 8.0 0.00 0.00 0.00 66 988.2
20210410202919 70 248 1.0 3.0 0.00 0.00 0.00 70 988.5
20210410201619 69 250 1.0 4.0 0.00 0.00 0.00 72 988.5
20210410201037 70 215 1.0 5.0 0.00 0.00 0.00 69 988.6
20210410200223 70 202 1.0 4.0 0.00 0.00 0.00 74 988.8
20210410195626 69 161 1.0 4.0 0.00 0.00 0.00 71 988.8
20210410194554 70 301 1.0 6.0 0.00 0.00 0.00 71 989.0
20210410194025 69 163 2.0 6.0 0.00 0.00 0.00 73 989.1
20210410193523 69 258 2.0 6.0 0.00 0.00 0.00 71 989.2
20210410193034 69 320 2.0 7.0 0.00 0.00 0.00 71 989.2
20210410192839 69 303 2.0 7.0 0.00 0.00 0.00 71 989.5
20210410192358 70 257 1.0 6.0 0.00 0.00 0.00 72 989.5
20210410191534 69 234 2.0 6.0 0.00 0.00 0.00 72 989.6
20210410191024 70 267 1.0 5.0 0.00 0.00 0.00 72 989.6
20210410190558 69 298 1.0 5.0 0.00 0.00 0.00 74 989.6
20210410190213 67 170 2.0 4.0 0.00 0.00 0.00 75 989.6
20210410185927 67 159 2.0 5.0 0.00 0.00 0.00 75 989.6
20210410185343 68 166 2.0 5.0 0.00 0.00 0.00 75 989.6
20210410184541 68 180 1.0 5.0 0.00 0.00 0.00 75 989.8
20210410184026 67 167 1.0 5.0 0.00 0.00 0.00 76 990.1
20210410183533 68 167 1.0 5.0 0.00 0.00 0.00 74 990.2
20210410183028 68 200 1.0 5.0 0.00 0.00 0.00 77 990.3
20210410182835 67 155 1.0 5.0 0.00 0.00 0.00 77 990.3
20210410182222 65 269 1.0 4.0 0.00 0.00 0.00 79 990.3
20210410181536 66 146 1.0 4.0 0.00 0.00 0.00 76 990.3
20210410181034 66 169 1.0 4.0 0.00 0.00 0.00 78 990.4
20210410180526 64 181 1.0 4.0 0.00 0.00 0.00 80 990.3
20210410180218 65 126 1.0 6.0 0.00 0.00 0.00 80 990.5
20210410175901 64 153 1.0 6.0 0.00 0.00 0.00 81 990.5
20210410175321 63 217 1.0 6.0 0.00 0.00 0.00 82 990.6
20210410174524 62 184 2.0 6.0 0.00 0.00 0.00 83 990.7
20210410174023 62 113 2.0 5.0 0.00 0.00 0.00 83 990.9
20210410173530 62 175 2.0 5.0 0.00 0.00 0.00 85 990.9
20210410173032 62 159 1.0 5.0 0.00 0.00 0.00 84 990.9
20210410172825 61 166 1.0 5.0 0.00 0.00 0.00 84 990.9
20210410172226 61 160 1.0 5.0 0.00 0.00 0.00 84 990.9
20210410171540 61 163 1.0 4.0 0.00 0.00 0.00 83 991.0
20210410171027 61 232 1.0 4.0 0.00 0.00 0.00 85 991.1
20210410170525 61 82 1.0 4.0 0.00 0.00 0.00 84 991.2
20210410170154 61 117 1.0 4.0 0.00 0.00 0.00 82 991.3
20210410165939 61 242 1.0 4.0 0.00 0.00 0.00 84 991.5
20210410165526 60 180 1.0 5.0 0.00 0.00 0.00 83 991.7
20210410164513 60 160 1.0 5.0 0.00 0.00 0.00 86 991.7
20210410164026 59 157 1.0 5.0 0.00 0.00 0.00 86 991.6
20210410163526 59 168 1.0 5.0 0.00 0.00 0.00 85 991.7
20210410163107 59 179 1.0 5.0 0.00 0.00 0.00 86 991.8
20210410162843 58 132 1.0 5.0 0.00 0.00 0.00 87 991.8
20210410162308 58 172 0.0 4.0 0.00 0.00 0.00 87 991.7
20210410161516 58 168 0.0 2.0 0.00 0.00 0.00 89 991.8
20210410161021 57 168 1.0 3.0 0.00 0.00 0.00 89 991.9
20210410160459 56 170 1.0 3.0 0.00 0.00 0.00 90 991.9
20210410160132 57 181 1.0 4.0 0.00 0.00 0.00 89 992.0
20210410155815 56 191 1.0 4.0 0.00 0.00 0.00 90 991.9
20210410155128 56 173 1.0 4.0 0.00 0.00 0.00 90 992.1
20210410154500 56 172 1.0 4.0 0.00 0.00 0.00 90 992.1
20210410153954 56 123 1.0 5.0 0.00 0.00 0.00 91 992.2
20210410153455 55 181 0.0 5.0 0.00 0.00 0.00 91 992.2
20210410152955 55 126 1.0 4.0 0.00 0.00 0.00 91 992.2
20210410152757 55 126 2.0 4.0 0.00 0.00 0.00 91 992.3
20210410152104 55 170 1.0 4.0 0.00 0.00 0.00 91 992.4
20210410151452 55 115 1.0 4.0 0.00 0.00 0.00 90 992.2
20210410150954 55 192 2.0 4.0 0.00 0.00 0.00 91 992.4
20210410150623 55 174 1.0 4.0 0.00 0.00 0.00 91 992.6
20210410150307 55 146 0.0 3.0 0.00 0.00 0.00 91 992.7
20210410150101 54 139 1.0 4.0 0.00 0.00 0.00 91 992.8
20210410145434 54 138 1.0 4.0 0.00 0.00 0.00 91 992.9
20210410144448 54 147 1.0 4.0 0.00 0.00 0.00 91 992.8
20210410144014 54 147 1.0 3.0 0.00 0.00 0.00 91 992.8
20210410143449 54 160 0.0 2.0 0.00 0.00 0.00 91 992.8
20210410142946 54 121 0.0 2.0 0.00 0.00 0.00 91 992.9
20210410142825 54 105 1.0 3.0 0.00 0.00 0.00 91 993.0
20210410142114 53 190 1.0 3.0 0.00 0.00 0.00 91 993.0
20210410141445 54 165 0.0 2.0 0.00 0.00 0.00 91 993.0
20210410140944 53 157 0.0 2.0 0.00 0.00 0.00 92 993.0
20210410140501 53 157 1.0 2.0 0.00 0.00 0.00 92 993.0
20210410140243 53 157 1.0 3.0 0.00 0.00 0.00 92 993.1
20210410135942 53 150 0.0 3.0 0.00 0.00 0.00 91 993.2
20210410135333 53 157 0.0 1.0 0.00 0.00 0.00 92 993.3
20210410134444 53 157 0.0 1.0 0.00 0.00 0.00 92 993.4
20210410133946 52 157 0.0 2.0 0.00 0.00 0.00 91 993.4
20210410133445 53 159 0.0 2.0 0.00 0.00 0.00 91 993.4
20210410132949 52 91 0.0 3.0 0.00 0.00 0.00 92 993.5
20210410132842 52 91 0.0 3.0 0.00 0.00 0.00 92 993.5
20210410132200 52 92 0.0 2.0 0.00 0.00 0.00 92 993.6
20210410131441 52 76 0.0 2.0 0.00 0.00 0.00 92 993.6
20210410130941 52 76 0.0 2.0 0.00 0.00 0.00 92 993.7
20210410130438 52 76 0.0 1.0 0.00 0.00 0.00 92 993.7
20210410125941 52 76 0.0 2.0 0.00 0.00 0.00 92 993.7
20210410125551 51 68 0.0 3.0 0.00 0.00 0.00 92 993.9
20210410124440 51 44 0.0 1.0 0.00 0.00 0.00 92 994.0
20210410123933 51 44 0.0 1.0 0.00 0.00 0.00 93 993.9
20210410123542 51 44 0.0 2.0 0.00 0.00 0.00 93 994.1
20210410123140 51 44 0.0 2.0 0.00 0.00 0.00 93 994.2
20210410121932 51 44 0.0 1.0 0.00 0.00 0.00 93 994.0
20210410121433 51 43 0.0 1.0 0.00 0.00 0.00 93 994.0
20210410120935 51 47 0.0 1.0 0.00 0.00 0.00 93 993.7
20210410120431 51 45 0.0 1.0 0.00 0.00 0.00 93 993.7
20210410120152 51 46 0.0 1.0 0.00 0.00 0.00 93 993.7
20210410115913 51 46 0.0 1.0 0.00 0.00 0.00 93 993.6
20210410115157 51 46 0.0 1.0 0.00 0.00 0.00 93 993.6
20210410114427 50 46 0.0 1.0 0.00 0.00 0.00 93 993.7
20210410113926 50 46 0.0 1.0 0.00 0.00 0.00 93 993.7
20210410113424 50 46 0.0 1.0 0.00 0.00 0.00 93 993.6
20210410112920 50 46 0.0 1.0 0.00 0.00 0.00 93 993.6
20210410112743 50 46 0.0 2.0 0.00 0.00 0.00 93 993.9
20210410112228 50 46 0.0 2.0 0.00 0.00 0.00 93 993.9
20210410111445 50 42 0.0 1.0 0.00 0.00 0.00 93 993.6
20210410110909 50 43 0.0 1.0 0.00 0.00 0.00 93 993.6
20210410110412 50 43 0.0 1.0 0.00 0.00 0.00 93 993.6
20210410105936 50 43 0.0 1.0 0.00 0.00 0.00 93 993.4
20210410105754 50 43 0.0 1.0 0.00 0.00 0.00 93 993.3
20210410104931 50 43 0.0 1.0 0.00 0.00 0.00 93 993.4
20210410104411 50 43 0.0 1.0 0.00 0.00 0.00 93 993.7
20210410103904 50 43 0.0 2.0 0.00 0.00 0.00 93 993.7
20210410103358 50 43 0.0 2.0 0.00 0.00 0.00 93 993.7
20210410102915 50 43 0.0 1.0 0.00 0.00 0.00 93 993.9
20210410102755 50 43 0.0 1.0 0.00 0.00 0.00 93 993.9
20210410102026 50 43 0.0 2.0 0.00 0.00 0.00 93 993.6
20210410101353 50 43 0.0 2.0 0.00 0.00 0.00 93 993.5
20210410100856 50 18 0.0 1.0 0.00 0.00 0.00 93 993.7
20210410100355 50 18 0.0 0.0 0.00 0.00 0.00 93 994.0
20210410100023 50 18 0.0 0.0 0.00 0.00 0.00 93 993.9
20210410095840 50 18 0.0 1.0 0.00 0.00 0.00 93 993.7
20210410095138 50 18 0.0 1.0 0.00 0.00 0.00 93 993.6
20210410094346 50 18 0.0 1.0 0.00 0.00 0.00 93 993.6
20210410093843 50 18 0.0 0.0 0.00 0.00 0.00 93 993.6
20210410093347 50 18 0.0 0.0 0.00 0.00 0.00 93 993.5
20210410092839 50 18 0.0 0.0 0.00 0.00 0.00 93 993.5
20210410092625 50 18 0.0 1.0 0.00 0.00 0.00 93 993.5
20210410091949 50 17 0.0 1.0 0.00 0.00 0.00 93 993.2
20210410091339 50 26 0.0 2.0 0.00 0.00 0.00 93 993.0
20210410090841 50 26 0.0 2.0 0.00 0.00 0.00 93 992.7
20210410090341 50 0 0.0 1.0 0.00 0.00 0.00 93 992.7
20210410085912 50 0 0.0 2.0 0.00 0.00 0.00 92 992.7
20210410085723 50 0 0.0 2.0 0.00 0.00 0.00 92 992.8
20210410084918 50 134 0.0 1.0 0.00 0.00 0.00 93 993.0
20210410084342 50 136 0.0 1.0 0.00 0.00 0.00 92 993.1
20210410083836 50 136 0.0 1.0 0.00 0.00 0.00 92 993.3
20210410083338 50 136 0.0 2.0 0.00 0.00 0.00 92 993.4
20210410082834 50 136 0.0 2.0 0.00 0.00 0.00 92 993.5
20210410082539 50 136 0.0 3.0 0.00 0.00 0.00 92 993.7
20210410081901 50 136 1.0 3.0 0.00 0.00 0.00 92 993.7
20210410081340 50 134 1.0 3.0 0.00 0.00 0.00 92 993.9
20210410080842 50 159 2.0 4.0 0.00 0.00 0.00 92 993.9
20210410080340 51 145 2.0 4.0 0.00 0.00 0.00 91 994.1
20210410080040 51 157 1.0 3.0 0.00 0.00 0.00 91 994.3
20210410075828 51 157 1.0 2.0 0.00 0.00 0.00 91 994.4
20210410075023 51 157 0.0 2.0 0.00 0.00 0.00 91 994.6
20210410074340 51 157 0.0 0.0 0.00 0.00 0.00 91 994.9
20210410073839 51 157 0.0 1.0 0.00 0.00 0.00 91 994.9
20210410073332 51 157 0.0 1.0 0.00 0.00 0.00 91 994.9
20210410072832 51 157 0.0 1.0 0.00 0.00 0.00 91 995.0
20210410072516 51 157 0.0 1.0 0.00 0.00 0.00 91 994.7
20210410071900 51 157 0.0 2.0 0.00 0.00 0.00 91 994.8
20210410071333 51 157 0.0 2.0 0.00 0.00 0.00 91 994.8
20210410070832 51 157 0.0 2.0 0.00 0.00 0.00 91 994.7
20210410070326 51 157 0.0 2.0 0.00 0.00 0.00 91 994.7
20210410065933 51 157 0.0 2.0 0.00 0.00 0.00 91 994.8
20210410065758 51 157 0.0 1.0 0.00 0.00 0.00 91 994.9
20210410064902 51 157 0.0 2.0 0.00 0.00 0.00 91 994.9
20210410064320 51 157 0.0 2.0 0.00 0.00 0.00 91 995.0
20210410063820 51 157 0.0 1.0 0.00 0.00 0.00 91 994.8
20210410063532 51 157 0.0 1.0 0.00 0.00 0.00 90 994.9
20210410063156 51 157 0.0 1.0 0.00 0.00 0.00 90 994.9
20210410062853 51 157 0.0 1.0 0.00 0.00 0.00 90 994.9
20210410061912 51 157 0.0 1.0 0.00 0.00 0.00 90 994.9
20210410061315 51 157 0.0 2.0 0.00 0.00 0.00 90 995.0
20210410060820 51 157 0.0 2.0 0.00 0.00 0.00 90 995.0
20210410060349 51 157 0.0 2.0 0.00 0.00 0.00 90 995.0
20210410060102 51 157 0.0 1.0 0.00 0.00 0.00 90 995.0
20210410055850 51 157 0.0 2.0 0.00 0.00 0.00 90 995.1
20210410054959 51 157 0.0 3.0 0.00 0.00 0.00 90 994.9
20210410054308 51 126 1.0 3.0 0.00 0.00 0.00 90 995.0
20210410053810 51 156 0.0 2.0 0.00 0.00 0.00 90 994.9
20210410053309 51 156 0.0 2.0 0.00 0.00 0.00 90 995.0
20210410052952 51 156 0.0 1.0 0.00 0.00 0.00 90 995.1
20210410052755 51 156 0.0 1.0 0.00 0.00 0.00 90 995.3
20210410051845 51 156 0.0 1.0 0.00 0.00 0.00 90 995.3
20210410051304 51 156 0.0 2.0 0.00 0.00 0.00 90 995.3
20210410050801 51 156 0.0 2.0 0.00 0.00 0.00 90 995.3
20210410050319 51 165 0.0 1.0 0.00 0.00 0.00 90 995.5
20210410050038 51 167 0.0 2.0 0.00 0.00 0.00 90 995.5
20210410045836 51 167 0.0 2.0 0.00 0.00 0.00 90 995.6
20210410044822 51 167 0.0 1.0 0.00 0.00 0.00 89 995.5
20210410044300 51 132 0.0 2.0 0.00 0.00 0.00 89 995.5
20210410043804 51 120 1.0 2.0 0.00 0.00 0.00 89 995.5
20210410043300 51 121 1.0 2.0 0.00 0.00 0.00 89 995.5
20210410042837 51 96 0.0 2.0 0.00 0.00 0.00 89 995.5
20210410042641 51 182 0.0 1.0 0.00 0.00 0.00 89 995.6
20210410041757 51 182 0.0 1.0 0.00 0.00 0.00 89 995.8
20210410041252 51 182 0.0 2.0 0.00 0.00 0.00 89 995.9
20210410040753 51 182 0.0 2.0 0.00 0.00 0.00 89 995.9
20210410040253 51 155 0.0 2.0 0.00 0.00 0.00 89 995.8
20210410040027 51 155 0.0 2.0 0.00 0.00 0.00 89 995.8
20210410035820 51 180 0.0 5.0 0.00 0.00 0.00 89 995.8
20210410034748 51 136 0.0 5.0 0.00 0.00 0.00 88 995.8
20210410034249 51 127 0.0 2.0 0.00 0.00 0.00 88 995.8
20210410033743 52 128 0.0 3.0 0.00 0.00 0.00 88 995.9
20210410033245 52 128 1.0 3.0 0.00 0.00 0.00 88 995.9
20210410032942 52 164 1.0 3.0 0.00 0.00 0.00 88 996.0
20210410032830 52 164 1.0 3.0 0.00 0.00 0.00 88 996.0
20210410031829 52 152 1.0 4.0 0.00 0.00 0.00 88 996.0
20210410031253 52 179 1.0 4.0 0.00 0.00 0.00 88 996.0
20210410030952 52 160 0.0 2.0 0.00 0.00 0.00 88 996.0
20210410030623 52 184 1.0 3.0 0.00 0.00 0.00 88 996.0
20210410030127 52 184 1.0 3.0 0.00 0.00 0.00 87 996.0
20210410025915 52 142 1.0 2.0 0.00 0.00 0.00 87 996.0
20210410024906 52 142 1.0 2.0 0.00 0.00 0.00 87 996.0
20210410024241 52 141 1.0 3.0 0.00 0.00 0.00 87 996.0
20210410023741 52 180 0.0 3.0 0.00 0.00 0.00 86 996.0
20210410023242 52 169 0.0 2.0 0.00 0.00 0.00 86 996.1
20210410022852 52 159 0.0 2.0 0.00 0.00 0.00 86 996.1
20210410022626 53 135 0.0 3.0 0.00 0.00 0.00 86 996.0
20210410021826 53 135 0.0 3.0 0.00 0.00 0.00 86 996.0
20210410021238 53 135 0.0 2.0 0.00 0.00 0.00 86 996.1
20210410020741 53 135 0.0 2.0 0.00 0.00 0.00 86 996.1
20210410020238 53 144 0.0 3.0 0.00 0.00 0.00 86 996.1
20210410015906 53 144 0.0 3.0 0.00 0.00 0.00 86 996.3
20210410015629 53 144 0.0 3.0 0.00 0.00 0.00 86 996.2